Meteo pe oră la Abdulovo

Astăzi, 26 Iulie, Luni

Timp Temperatura Precipitaţii Vânt Presiune Umiditate
00:00 +15°C° 0 mm 2 m/s 749 mmHg 52%
01:00 +14°C° 0 mm 2 m/s 750 mmHg 52%
02:00 +14°C° 0 mm 2 m/s 750 mmHg 53%
03:00 +13°C° 0 mm 2 m/s 750 mmHg 54%
04:00 +13°C° 0 mm 2 m/s 750 mmHg 55%
05:00 +14°C° 0 mm 2 m/s 750 mmHg 51%
06:00 +16°C° 0 mm 2 m/s 751 mmHg 47%
07:00 +17°C° 0 mm 2 m/s 751 mmHg 44%
08:00 +19°C° 0 mm 2 m/s 751 mmHg 40%
09:00 +20°C° 0 mm 3 m/s 751 mmHg 36%
10:00 +22°C° 0 mm 3 m/s 751 mmHg 32%
11:00 +24°C° 0 mm 3 m/s 751 mmHg 30%
12:00 +24°C° 0 mm 3 m/s 751 mmHg 29%
13:00 +25°C° 0 mm 3 m/s 751 mmHg 27%
14:00 +25°C° 0 mm 4 m/s 750 mmHg 27%
15:00 +26°C° 0 mm 4 m/s 750 mmHg 26%
16:00 +26°C° 0 mm 4 m/s 750 mmHg 26%
17:00 +25°C° 0 mm 4 m/s 750 mmHg 28%
18:00 +25°C° 0 mm 4 m/s 750 mmHg 30%
19:00 +23°C° 0 mm 4 m/s 749 mmHg 31%
20:00 +22°C° 0 mm 3 m/s 749 mmHg 33%
21:00 +20°C° 0 mm 2 m/s 749 mmHg 35%
22:00 +20°C° 0 mm 1 m/s 749 mmHg 37%
23:00 +18°C° 0 mm 2 m/s 749 mmHg 39%

Mâine, 27 Iulie, Marţi

Timp Temperatura Precipitaţii Vânt Presiune Umiditate
00:00 +18°C° 0 mm 2 m/s 749 mmHg 41%
01:00 +17°C° 0 mm 2 m/s 749 mmHg 43%
02:00 +16°C° 0 mm 2 m/s 749 mmHg 45%
03:00 +15°C° 0 mm 2 m/s 749 mmHg 47%
04:00 +15°C° 0 mm 2 m/s 749 mmHg 49%
05:00 +16°C° 0 mm 2 m/s 749 mmHg 46%
06:00 +17°C° 0 mm 2 m/s 750 mmHg 44%
07:00 +19°C° 0 mm 2 m/s 750 mmHg 41%
08:00 +20°C° 0 mm 2 m/s 750 mmHg 39%
09:00 +22°C° 0 mm 3 m/s 749 mmHg 37%
10:00 +24°C° 0 mm 3 m/s 749 mmHg 35%
11:00 +25°C° 0 mm 4 m/s 749 mmHg 33%
12:00 +26°C° 0 mm 4 m/s 748 mmHg 30%
13:00 +27°C° 0 mm 5 m/s 748 mmHg 28%
14:00 +27°C° 0 mm 5 m/s 748 mmHg 28%
15:00 +27°C° 0 mm 5 m/s 748 mmHg 28%
16:00 +27°C° 0 mm 5 m/s 747 mmHg 29%
17:00 +26°C° 0 mm 4 m/s 747 mmHg 31%
18:00 +25°C° 0 mm 4 m/s 747 mmHg 33%
19:00 +25°C° 0 mm 4 m/s 746 mmHg 36%
20:00 +22°C° 0 mm 3 m/s 746 mmHg 42%
21:00 +20°C° 0 mm 3 m/s 746 mmHg 49%
22:00 +18°C° 0 mm 2 m/s 746 mmHg 55%
23:00 +18°C° 0 mm 2 m/s 746 mmHg 56%

Poimâine, 28 Iulie, Miercuri

Timp Temperatura Precipitaţii Vânt Presiune Umiditate
00:00 +18°C° 0 mm 2 m/s 746 mmHg 57%
01:00 +18°C° 0 mm 2 m/s 746 mmHg 59%
02:00 +17°C° 0 mm 2 m/s 746 mmHg 64%
03:00 +16°C° 0 mm 2 m/s 746 mmHg 70%
04:00 +14°C° 0 mm 3 m/s 746 mmHg 75%
05:00 +16°C° 0 mm 3 m/s 746 mmHg 73%
06:00 +17°C° 0 mm 4 m/s 746 mmHg 70%
07:00 +18°C° 0 mm 4 m/s 747 mmHg 67%
08:00 +19°C° 0 mm 5 m/s 747 mmHg 58%
09:00 +21°C° 0 mm 5 m/s 747 mmHg 49%
10:00 +22°C° 0 mm 5 m/s 747 mmHg 40%
11:00 +23°C° 0 mm 6 m/s 747 mmHg 37%
12:00 +24°C° 0 mm 6 m/s 746 mmHg 33%
13:00 +26°C° 0 mm 6 m/s 746 mmHg 30%
14:00 +26°C° 0 mm 6 m/s 746 mmHg 28%
15:00 +26°C° 0 mm 5 m/s 746 mmHg 27%
16:00 +26°C° 0 mm 5 m/s 746 mmHg 25%
17:00 +25°C° 0 mm 5 m/s 746 mmHg 26%
18:00 +25°C° 0 mm 4 m/s 746 mmHg 27%
19:00 +23°C° 0 mm 4 m/s 746 mmHg 28%
20:00 +21°C° 0 mm 3 m/s 746 mmHg 32%
21:00 +19°C° 0 mm 2 m/s 746 mmHg 36%
22:00 +16°C° 0 mm 2 m/s 746 mmHg 40%
23:00 +16°C° 0 mm 2 m/s 746 mmHg 43%

29 Iulie, Joi

Timp Temperatura Precipitaţii Vânt Presiune Umiditate
00:00 +15°C° 0 mm 1 m/s 746 mmHg 46%
01:00 +14°C° 0 mm 1 m/s 746 mmHg 49%
02:00 +14°C° 0 mm 1 m/s 746 mmHg 50%
03:00 +13°C° 0 mm 1 m/s 746 mmHg 51%
04:00 +13°C° 0 mm 1 m/s 746 mmHg 53%
05:00 +15°C° 0 mm 2 m/s 747 mmHg 48%
06:00 +17°C° 0 mm 2 m/s 747 mmHg 44%
07:00 +18°C° 0 mm 2 m/s 747 mmHg 39%
08:00 +20°C° 0 mm 3 m/s 747 mmHg 35%
09:00 +22°C° 0 mm 3 m/s 746 mmHg 31%
10:00 +26°C° 0 mm 3 m/s 746 mmHg 28%
11:00 +27°C° 0 mm 4 m/s 746 mmHg 28%
12:00 +28°C° 0 mm 4 m/s 746 mmHg 28%
13:00 +29°C° 0 mm 4 m/s 745 mmHg 28%
14:00 +29°C° 0 mm 4 m/s 745 mmHg 29%
15:00 +30°C° 0 mm 4 m/s 744 mmHg 29%
16:00 +30°C° 0 mm 4 m/s 744 mmHg 30%
17:00 +29°C° 0 mm 4 m/s 744 mmHg 31%
18:00 +28°C° 0 mm 4 m/s 743 mmHg 32%
19:00 +27°C° 0 mm 3 m/s 743 mmHg 34%
20:00 +26°C° 0 mm 3 m/s 743 mmHg 40%
21:00 +24°C° 0 mm 2 m/s 742 mmHg 46%
22:00 +23°C° 0 mm 1 m/s 742 mmHg 53%
23:00 +23°C° 0 mm 4 m/s 742 mmHg 46%

30 Iulie, Vineri

Timp Temperatura Precipitaţii Vânt Presiune Umiditate
00:00 +24°C° 0 mm 6 m/s 742 mmHg 40%
01:00 +26°C° 0 mm 8 m/s 741 mmHg 34%
02:00 +23°C° 0 mm 7 m/s 741 mmHg 42%
03:00 +22°C° 0 mm 6 m/s 741 mmHg 51%
04:00 +20°C° 0 mm 5 m/s 741 mmHg 59%
05:00 +21°C° 0 mm 5 m/s 741 mmHg 58%
06:00 +22°C° 0 mm 5 m/s 741 mmHg 57%
07:00 +23°C° 0 mm 5 m/s 741 mmHg 56%
08:00 +26°C° 0 mm 5 m/s 741 mmHg 50%
09:00 +28°C° 0 mm 6 m/s 741 mmHg 45%
10:00 +30°C° 0 mm 6 m/s 741 mmHg 40%
11:00 +32°C° 0 mm 6 m/s 741 mmHg 38%
12:00 +32°C° 0 mm 6 m/s 741 mmHg 36%
13:00 +32°C° 0 mm 6 m/s 740 mmHg 35%
14:00 +33°C° 0 mm 7 m/s 740 mmHg 32%
15:00 +34°C° 0 mm 7 m/s 740 mmHg 30%
16:00 +35°C° 0 mm 8 m/s 740 mmHg 28%
17:00 +33°C° 0 mm 8 m/s 740 mmHg 31%
18:00 +32°C° 0 mm 7 m/s 741 mmHg 34%
19:00 +30°C° 0 mm 7 m/s 741 mmHg 36%
20:00 +28°C° 0 mm 5 m/s 741 mmHg 45%
21:00 +26°C° 0 mm 4 m/s 741 mmHg 53%
22:00 +24°C° 0 mm 3 m/s 742 mmHg 61%
23:00 +23°C° 0 mm 2 m/s 742 mmHg 64%

31 Iulie, Sâmbătă

Timp Temperatura Precipitaţii Vânt Presiune Umiditate
00:00 +21°C° 0 mm 2 m/s 742 mmHg 67%
01:00 +22°C° 0 mm 1 m/s 742 mmHg 70%
02:00 +21°C° 0 mm 1 m/s 742 mmHg 72%
03:00 +21°C° 0 mm 1 m/s 742 mmHg 74%
04:00 +20°C° 0 mm 1 m/s 743 mmHg 77%
05:00 +22°C° 0 mm 1 m/s 743 mmHg 70%
06:00 +23°C° 0 mm 1 m/s 743 mmHg 63%
07:00 +25°C° 0 mm 2 m/s 743 mmHg 56%
08:00 +27°C° 0 mm 2 m/s 743 mmHg 49%
09:00 +30°C° 0 mm 3 m/s 743 mmHg 42%
10:00 +33°C° 0 mm 4 m/s 743 mmHg 35%
11:00 +34°C° 0 mm 4 m/s 743 mmHg 33%
12:00 +35°C° 0 mm 5 m/s 743 mmHg 31%
13:00 +36°C° 0 mm 6 m/s 743 mmHg 29%
14:00 +36°C° 0 mm 6 m/s 743 mmHg 29%
15:00 +36°C° 0 mm 7 m/s 743 mmHg 29%
16:00 +36°C° 0 mm 7 m/s 742 mmHg 30%
17:00 +35°C° 0 mm 6 m/s 743 mmHg 32%
18:00 +34°C° 0 mm 5 m/s 743 mmHg 35%
19:00 +33°C° 0 mm 3 m/s 743 mmHg 37%
20:00 +31°C° 0 mm 2 m/s 743 mmHg 40%
21:00 +29°C° 0 mm 2 m/s 743 mmHg 43%
22:00 +28°C° 0 mm 1 m/s 743 mmHg 47%
23:00 +27°C° 0 mm 1 m/s 743 mmHg 49%
Arată mai mult

Formular de consimțământ

Meteoprog și furnizorii noștri de servicii pot stoca și accesa date personale, precum cookies, identificatori de dispozitiv sau alte tehnologii similare pe dispozitivul dumneavoastră și procesa astfel de date pentru a personaliza conținutul și reclamele, dar și pentru a oferi caracteristici de social media și pentru a analiza traficul.

  • Stocarea și/sau accesarea informațiilor pe dispozitivul dumneavoastră

    Cookies, identificatori de dispozitiv sau alte informații pot fi stocate sau accesate pe dispozitiv în scopurile indicate mai sus.

  • Reclame și conținut personalizat, evaluarea reclamelor și a conținutului, informații despre audiențe și dezvoltarea produselor

    Reclamele și conținutul pot fi personalizate pe baza unui profil. Pot fi adăugate date suplimentare pentru a personaliza mai bine reclamele și conținutul. Performanța reclamelor și conținutului poate fi măsurată. Pot fi obținute informații despre utilizatorii care au văzut reclamele și conținutul. Aceste date pot fi utilizate pentru a dezvolta sau îmbunătăți experiența utilizatorilor, sistemele și software-ul.

Dând clic pe ‘Sunt de acord’, permiteți utilizarea cookie-urilor menționate, a identificatorilor de dispozitiv, balizelor web sau altor tehnologii similare. Setările pot fi modificate din browser-ul dispozitivului dumneavoastră.

În anumite scopuri, interesele legitime pot prima asupra consimțământului. Puteți citi mai multe informații în acest sens în Politica privind Confidențialitatea Datelor și Cookie.